Location: Ku?niki
(51.4449°N, 17.8974°E)
Time: 07:42:54
(UTC+00:00)

Cosmos 1125 Rocket - Pass Details

Date: 18 September 2020
Orbit: 757 x 780 km, 74.0° (Epoch: 22 October)

Event Time Altitude Azimuth Distance (km) Brightness Sun altitude
Rises 18:58:11 0° 189° (S) 3,246 6.6 -19.2°
Reaches altitude 10° 19:00:35 10° 185° (S) 2,325 5.8 -19.5°
Maximum altitude 19:05:45 57° 108° (ESE) 917 3.5 -20.2°
Drops below altitude 10° 19:10:58 10° 31° (NNE) 2,345 6.0 -20.9°
Sets 19:13:23 0° 28° (NNE) 3,277 6.8 -21.2°
